Simultaneous Nadir Overpasses (SNOs) Predictions

Prediction of SNOs between NOAA-20 and METOP-B Satellite Orbit:

Table of predicted SNOs for the next 14.0 days since TLE Epoch: 7/24/2020
Index Date (NOAA-20) Time (NOAA-20) Lat,Lon (NOAA-20) SZA (NOAA-20 ) Date (METOP-B) Time (METOP-B) Lat,Lon (METOP-B) SZA (METOP-B ) Distance(km) Time Diff (sec)
1 07/28/2020 00:06:28 -73.54, -11.50 125.09 07/28/2020 00:07:34 -73.49, -8.48 125.33 95.56 66
2 07/28/2020 00:57:10 73.34, 156.26 54.70 07/28/2020 00:58:18 73.28, 158.39 54.50 68.45 68
3 07/28/2020 01:47:52 -73.25, -36.22 125.40 07/28/2020 01:49:02 -73.17, -34.54 125.59 54.66 70
4 07/28/2020 02:38:34 73.04, 131.53 54.39 07/28/2020 02:39:46 72.96, 132.35 54.23 28.22 72
5 07/28/2020 03:29:16 -72.95, -60.95 125.71 07/28/2020 03:30:29 -72.89, -60.46 125.82 17.22 73
6 07/28/2020 04:19:59 72.80, 106.68 54.13 07/28/2020 04:21:11 72.78, 106.64 54.10 2.13 72
7 07/28/2020 05:10:43 -72.81, -86.02 125.86 07/28/2020 05:11:52 -72.82, -85.96 125.87 2.51 69
8 07/28/2020 06:01:29 72.81, 81.29 54.15 07/28/2020 06:02:32 72.81, 81.36 54.14 2.36 63
9 07/28/2020 06:52:13 -72.81,-111.41 125.83 07/28/2020 06:53:14 -72.80,-111.34 125.87 2.92 61
10 07/28/2020 07:42:58 72.76, 56.01 54.12 07/28/2020 07:43:54 72.79, 55.97 54.14 3.13 56
11 07/28/2020 08:33:42 -72.77,-136.69 125.86 07/28/2020 08:34:36 -72.77,-136.73 125.87 1.28 54
12 07/28/2020 09:24:28 72.77, 30.62 54.15 07/28/2020 09:25:16 72.77, 30.59 54.13 1.16 48
13 07/28/2020 10:15:12 -72.78,-162.08 125.84 07/28/2020 10:15:58 -72.75,-162.12 125.88 3.18 46
14 07/28/2020 11:05:58 72.78, 5.23 54.17 07/28/2020 11:06:37 72.79, 5.30 54.17 3.10 39
15 07/28/2020 11:56:42 -72.78, 172.53 125.82 07/28/2020 11:57:19 -72.78, 172.60 125.84 2.42 37
16 07/28/2020 12:47:28 72.78, -20.16 54.19 07/28/2020 12:47:59 72.77, -20.08 54.17 2.88 31
17 07/28/2020 13:38:11 -72.74, 147.24 125.85 07/28/2020 13:38:41 -72.76, 147.21 125.84 1.99 30
18 07/28/2020 14:28:57 72.74, -45.44 54.16 07/28/2020 14:29:21 72.75, -45.47 54.17 1.27 24
19 07/28/2020 15:19:41 -72.75, 121.86 125.82 07/28/2020 15:20:03 -72.73, 121.83 125.84 1.91 22
20 07/28/2020 16:10:27 72.75, -70.83 54.19 07/28/2020 16:10:43 72.72, -70.86 54.16 2.59 16
21 07/28/2020 17:01:11 -72.75, 96.47 125.80 07/28/2020 17:01:24 -72.76, 96.54 125.80 2.61 13
22 07/28/2020 17:51:57 72.75, -96.22 54.21 07/28/2020 17:52:04 72.75, -96.14 54.20 2.67 7
23 07/28/2020 18:42:40 -72.71, 71.18 125.83 07/28/2020 18:42:46 -72.74, 71.16 125.80 3.13 6
24 07/28/2020 19:33:26 72.71,-121.51 54.18 07/28/2020 19:33:26 72.73,-121.53 54.20 2.32 0
25 07/28/2020 20:24:10 -72.72, 45.79 125.81 07/28/2020 20:24:08 -72.72, 45.77 125.81 0.87 2
26 07/28/2020 21:14:56 72.72,-146.89 54.20 07/28/2020 21:14:48 72.71,-146.91 54.20 1.32 8
27 07/28/2020 22:05:40 -72.72, 20.41 125.78 07/28/2020 22:05:29 -72.74, 20.49 125.77 3.37 11
28 07/28/2020 22:56:26 72.72,-172.28 54.23 07/28/2020 22:56:09 72.73,-172.20 54.24 3.09 17
29 07/28/2020 23:47:10 -72.73, -4.98 125.76 07/28/2020 23:46:51 -72.72, -4.90 125.77 3.05 19
30 07/29/2020 00:37:55 72.68, 162.43 54.20 07/29/2020 00:37:31 72.71, 162.42 54.23 3.55 24
31 07/29/2020 01:28:39 -72.69, -30.27 125.79 07/29/2020 01:28:13 -72.70, -30.29 125.77 1.19 26
32 07/29/2020 02:19:25 72.69, 137.04 54.22 07/29/2020 02:18:53 72.69, 137.03 54.23 0.51 32
33 07/29/2020 03:10:09 -72.70, -55.66 125.77 07/29/2020 03:09:35 -72.67, -55.67 125.78 2.36 34
34 07/29/2020 04:00:55 72.69, 111.66 54.25 07/29/2020 04:00:15 72.67, 111.64 54.23 3.20 40
35 07/29/2020 04:51:38 -72.70, -81.04 125.74 07/29/2020 04:50:55 -72.70, -80.96 125.74 2.96 43
36 07/29/2020 05:42:24 72.70, 86.27 54.27 07/29/2020 05:41:35 72.69, 86.36 54.27 3.22 49
37 07/29/2020 06:33:07 -72.66,-106.33 125.77 07/29/2020 06:32:17 -72.68,-106.34 125.74 2.38 50
38 07/29/2020 07:23:53 72.66, 60.98 54.24 07/29/2020 07:22:57 72.67, 60.97 54.27 1.50 56
39 07/29/2020 08:14:37 -72.67,-131.72 125.75 07/29/2020 08:13:39 -72.66,-131.73 125.74 1.03 58
40 07/29/2020 09:05:23 72.66, 35.59 54.26 07/29/2020 09:04:19 72.65, 35.59 54.26 1.88 64
41 07/29/2020 09:56:07 -72.67,-157.11 125.72 07/29/2020 09:55:00 -72.68,-157.01 125.70 3.44 67
42 07/29/2020 10:46:53 72.67, 10.20 54.29 07/29/2020 10:45:40 72.68, 10.30 54.30 3.34 73
43 07/29/2020 11:37:36 -72.63, 177.61 125.75 07/29/2020 11:36:22 -72.66, 177.60 125.70 3.67 74
44 07/29/2020 12:28:19 72.47, -14.77 54.09 07/29/2020 12:27:06 72.45, -15.49 54.12 24.39 73
45 07/29/2020 13:19:01 -72.38, 152.73 126.01 07/29/2020 13:17:49 -72.38, 151.71 125.93 34.49 72
46 07/29/2020 14:09:42 72.12, -39.46 53.72 07/29/2020 14:08:33 72.17, -41.38 53.90 65.75 69
47 07/29/2020 15:00:25 -72.08, 127.94 126.32 07/29/2020 14:59:16 -72.11, 125.83 126.15 72.27 69
